| time (UTC) | temp C | wind direction | speed KPH | gust KPH | rain 1hr cm | rain 24hr cm | rain mn cm | humidity % | barometer mb |
| 20260906040032 | 25 | 5 | 0.0 | 3.2 | 0.00 | 0.56 | 0.00 | 70 | 1013.7 |
| 20260906035512 | 25 | 5 | 0.0 | 3.2 | 0.00 | 0.56 | 0.56 | 70 | 1013.7 |
| 20260906035006 | 25 | 5 | 0.0 | 0.0 | 0.00 | 0.56 | 0.56 | 69 | 1013.6 |
| 20260906034504 | 25 | 5 | 0.0 | 0.0 | 0.00 | 0.56 | 0.56 | 69 | 1013.5 |
| 20260906034003 | 25 | 5 | 0.0 | 3.2 | 0.00 | 0.56 | 0.56 | 69 | 1013.5 |
| 20260906033505 | 25 | 5 | 0.0 | 3.2 | 0.00 | 0.56 | 0.56 | 69 | 1013.5 |
| 20260906033008 | 25 | 5 | 0.0 | 3.2 | 0.00 | 0.56 | 0.56 | 69 | 1013.5 |
| 20260906032507 | 25 | 5 | 0.0 | 1.6 | 0.00 | 0.56 | 0.56 | 68 | 1013.6 |
| 20260906032009 | 25 | 5 | 0.0 | 1.6 | 0.00 | 0.56 | 0.56 | 68 | 1013.6 |
| 20260906031514 | 25 | 5 | 0.0 | 3.2 | 0.00 | 0.56 | 0.56 | 68 | 1013.6 |
| 20260906031011 | 25 | 5 | 0.0 | 3.2 | 0.00 | 0.56 | 0.56 | 67 | 1013.6 |
| 20260906030514 | 25 | 244 | 0.0 | 1.6 | 0.00 | 0.56 | 0.56 | 68 | 1013.8 |
| 20260906030019 | 25 | 9 | 0.0 | 0.0 | 0.00 | 0.56 | 0.56 | 67 | 1013.7 |
| 20260906025512 | 25 | 5 | 0.0 | 0.0 | 0.00 | 0.56 | 0.56 | 67 | 1013.5 |
| 20260906025013 | 26 | 5 | 0.0 | 0.0 | 0.00 | 0.56 | 0.56 | 67 | 1013.4 |
| 20260906024528 | 26 | 5 | 0.0 | 0.0 | 0.00 | 0.56 | 0.56 | 67 | 1013.2 |
| 20260906024017 | 26 | 5 | 0.0 | 0.0 | 0.00 | 0.56 | 0.56 | 66 | 1013.0 |
| 20260906023504 | 26 | 5 | 0.0 | 0.0 | 0.00 | 0.56 | 0.56 | 66 | 1013.1 |
| 20260906023005 | 26 | 5 | 0.0 | 0.0 | 0.00 | 0.56 | 0.56 | 65 | 1013.2 |
| 20260906022506 | 26 | 5 | 0.0 | 1.6 | 0.00 | 0.56 | 0.56 | 64 | 1013.2 |
| 20260906022006 | 26 | 5 | 0.0 | 1.6 | 0.00 | 0.56 | 0.56 | 64 | 1013.1 |
| 20260906021511 | 26 | 5 | 0.0 | 1.6 | 0.00 | 0.56 | 0.56 | 64 | 1013.2 |
| 20260906021009 | 26 | 5 | 0.0 | 0.0 | 0.00 | 0.56 | 0.56 | 64 | 1013.1 |
| 20260906020511 | 26 | 5 | 0.0 | 0.0 | 0.00 | 0.56 | 0.56 | 64 | 1013.0 |
| 20260906020014 | 26 | 5 | 0.0 | 0.0 | 0.00 | 0.56 | 0.56 | 64 | 1013.0 |
| 20260906015515 | 26 | 5 | 0.0 | 0.0 | 0.00 | 0.56 | 0.56 | 64 | 1013.0 |
| 20260906015011 | 26 | 5 | 0.0 | 0.0 | 0.00 | 0.56 | 0.56 | 63 | 1013.0 |
| 20260906014529 | 26 | 5 | 0.0 | 0.0 | 0.00 | 0.56 | 0.56 | 63 | 1013.1 |
| 20260906014017 | 26 | 5 | 0.0 | 0.0 | 0.00 | 0.56 | 0.56 | 62 | 1013.1 |
| 20260906013514 | 27 | 5 | 0.0 | 0.0 | 0.00 | 0.56 | 0.56 | 62 | 1013.0 |
| 20260906013028 | 27 | 5 | 0.0 | 1.6 | 0.00 | 0.56 | 0.56 | 61 | 1013.2 |
| 20260906012513 | 27 | 5 | 0.0 | 3.2 | 0.00 | 0.56 | 0.56 | 60 | 1013.0 |
| 20260906012007 | 27 | 5 | 0.0 | 4.8 | 0.00 | 0.56 | 0.56 | 60 | 1012.8 |
| 20260906011512 | 27 | 5 | 0.0 | 4.8 | 0.00 | 0.56 | 0.56 | 60 | 1012.9 |
| 20260906011011 | 27 | 5 | 0.0 | 4.8 | 0.00 | 0.56 | 0.56 | 60 | 1012.9 |
| 20260906010505 | 27 | 5 | 0.0 | 4.8 | 0.00 | 0.56 | 0.56 | 59 | 1012.7 |
| 20260906010016 | 27 | 5 | 1.6 | 4.8 | 0.00 | 0.56 | 0.56 | 59 | 1012.7 |
| 20260906005507 | 27 | 5 | 1.6 | 3.2 | 0.00 | 0.56 | 0.56 | 59 | 1012.7 |
| 20260906005011 | 27 | 5 | 0.0 | 4.8 | 0.00 | 0.56 | 0.56 | 59 | 1012.7 |
| 20260906004520 | 27 | 5 | 1.6 | 6.4 | 0.00 | 0.56 | 0.56 | 58 | 1012.6 |
| 20260906004011 | 28 | 355 | 1.6 | 6.4 | 0.00 | 0.56 | 0.56 | 58 | 1012.5 |
| 20260906003515 | 28 | 360 | 1.6 | 4.8 | 0.00 | 0.56 | 0.56 | 1012.6 | |
| 20260906003028 | 28 | 5 | 0.0 | 0.0 | 0.00 | 0.56 | 0.56 | 57 | 1012.6 |
| 20260906002513 | 28 | 5 | 0.0 | 0.0 | 0.00 | 0.56 | 0.56 | 57 | 1012.4 |
| 20260906002014 | 28 | 5 | 0.0 | 0.0 | 0.00 | 0.56 | 0.56 | 56 | 1012.4 |
| 20260906001533 | 28 | 5 | 0.0 | 1.6 | 0.00 | 0.56 | 0.56 | 55 | 1012.6 |
| 20260906001016 | 28 | 5 | 0.0 | 1.6 | 0.00 | 0.56 | 0.56 | 55 | 1012.6 |
| 20260906000507 | 29 | 5 | 0.0 | 1.6 | 0.00 | 0.56 | 0.56 | 54 | 1012.7 |
| 20260906000012 | 29 | 5 | 0.0 | 4.8 | 0.00 | 0.56 | 0.56 | 54 | 1012.7 |
| 20260905235507 | 30 | 5 | 1.6 | 4.8 | 0.00 | 0.56 | 0.56 | 53 | 1012.8 |
| 20260905235007 | 30 | 11 | 0.0 | 3.2 | 0.00 | 0.56 | 0.56 | 54 | 1012.9 |
| 20260905234516 | 30 | 273 | 0.0 | 4.8 | 0.00 | 0.56 | 0.56 | 54 | 1013.0 |
| 20260905234017 | 30 | 309 | 0.0 | 4.8 | 0.00 | 0.56 | 0.56 | 53 | 1013.0 |
| 20260905233511 | 30 | 342 | 1.6 | 4.8 | 0.00 | 0.56 | 0.56 | 54 | 1013.1 |
| 20260905233030 | 30 | 286 | 0.0 | 4.8 | 0.00 | 0.56 | 0.56 | 53 | 1013.0 |
| 20260905232513 | 30 | 192 | 0.0 | 4.8 | 0.00 | 0.56 | 0.56 | 52 | 1013.0 |
| 20260905232014 | 31 | 188 | 0.0 | 4.8 | 0.00 | 0.56 | 0.56 | 52 | 1013.1 |
| 20260905231532 | 31 | 191 | 0.0 | 6.4 | 0.00 | 0.56 | 0.56 | 51 | 1013.1 |
| 20260905231017 | 31 | 204 | 1.6 | 6.4 | 0.00 | 0.56 | 0.56 | 51 | 1013.2 |
| 20260905230519 | 31 | 192 | 1.6 | 8.0 | 0.00 | 0.56 | 0.56 | 50 | 1013.1 |
| 20260905230111 | 31 | 205 | 0.0 | 9.7 | 0.00 | 0.56 | 0.56 | 50 | 1013.1 |
| 20260905225516 | 31 | 230 | 1.6 | 9.7 | 0.00 | 0.56 | 0.56 | 49 | 1013.0 |
| 20260905225006 | 31 | 198 | 0.0 | 6.4 | 0.00 | 0.56 | 0.56 | 50 | 1013.0 |
| 20260905224556 | 31 | 176 | 1.6 | 9.7 | 0.00 | 0.56 | 0.56 | 48 | 1012.9 |
| 20260905224018 | 31 | 207 | 0.0 | 9.7 | 0.00 | 0.56 | 0.56 | 49 | 1012.9 |
| 20260905223518 | 31 | 277 | 0.0 | 8.0 | 0.00 | 0.56 | 0.56 | 48 | 1013.0 |
| 20260905223031 | 31 | 204 | 3.2 | 8.0 | 0.00 | 0.56 | 0.56 | 48 | 1013.0 |
| 20260905222513 | 31 | 213 | 1.6 | 4.8 | 0.00 | 0.56 | 0.56 | 47 | 1012.9 |
| 20260905222003 | 32 | 288 | 0.0 | 11.3 | 0.00 | 0.56 | 0.56 | 46 | 1012.9 |
| 20260905221510 | 32 | 221 | 3.2 | 14.5 | 0.00 | 0.56 | 0.56 | 47 | 1012.8 |
| 20260905221004 | 32 | 189 | 4.8 | 14.5 | 0.00 | 0.56 | 0.56 | 45 | 1012.9 |
| 20260905220505 | 32 | 161 | 3.2 | 14.5 | 0.00 | 0.56 | 0.56 | 45 | 1012.9 |
| 20260905220007 | 32 | 182 | 1.6 | 14.5 | 0.00 | 0.56 | 0.56 | 45 | 1013.0 |
| 20260905215509 | 32 | 234 | 0.0 | 11.3 | 0.00 | 0.56 | 0.56 | 46 | 1012.9 |
| 20260905215006 | 32 | 192 | 3.2 | 11.3 | 0.00 | 0.56 | 0.56 | 45 | 1012.9 |
| 20260905214507 | 32 | 259 | 1.6 | 9.7 | 0.00 | 0.56 | 0.56 | 45 | 1012.9 |
| 20260905214008 | 32 | 198 | 3.2 | 11.3 | 0.00 | 0.56 | 0.56 | 44 | 1012.8 |
| 20260905213508 | 32 | 275 | 1.6 | 11.3 | 0.00 | 0.56 | 0.56 | 45 | 1012.8 |
| 20260905213016 | 32 | 190 | 3.2 | 11.3 | 0.00 | 0.56 | 0.56 | 45 | 1012.8 |
| 20260905212510 | 32 | 151 | 1.6 | 11.3 | 0.00 | 0.56 | 0.56 | 44 | 1012.7 |
| 20260905212015 | 32 | 269 | 0.0 | 9.7 | 0.00 | 0.56 | 0.56 | 44 | 1012.8 |
| 20260905211510 | 32 | 236 | 4.8 | 9.7 | 0.00 | 0.56 | 0.56 | 43 | 1012.7 |
| 20260905211003 | 32 | 64 | 0.0 | 6.4 | 0.00 | 0.56 | 0.56 | 44 | 1012.7 |
| 20260905210502 | 32 | 180 | 1.6 | 8.0 | 0.00 | 0.56 | 0.56 | 43 | 1012.7 |
| 20260905210005 | 32 | 153 | 3.2 | 8.0 | 0.00 | 0.56 | 0.56 | 42 | 1012.8 |
| 20260905205505 | 32 | 296 | 1.6 | 6.4 | 0.00 | 0.56 | 0.56 | 43 | 1012.8 |
| 20260905205004 | 32 | 178 | 1.6 | 6.4 | 0.00 | 0.56 | 0.56 | 42 | 1012.8 |
| 20260905204506 | 33 | 219 | 1.6 | 11.3 | 0.00 | 0.56 | 0.56 | 42 | 1012.8 |
| 20260905204007 | 33 | 207 | 4.8 | 11.3 | 0.00 | 0.56 | 0.56 | 42 | 1012.8 |
| 20260905203508 | 33 | 217 | 4.8 | 11.3 | 0.00 | 0.56 | 0.56 | 40 | 1012.8 |
| 20260905203012 | 33 | 180 | 3.2 | 12.9 | 0.00 | 0.56 | 0.56 | 39 | 1012.9 |
| 20260905202507 | 33 | 232 | 1.6 | 12.9 | 0.00 | 0.56 | 0.56 | 39 | 1013.0 |
| 20260905202009 | 33 | 126 | 1.6 | 9.7 | 0.00 | 0.56 | 0.56 | 40 | 1013.1 |
| 20260905201517 | 33 | 157 | 0.0 | 9.7 | 0.00 | 0.56 | 0.56 | 39 | 1013.2 |
| 20260905201013 | 33 | 196 | 0.0 | 4.8 | 0.00 | 0.56 | 0.56 | 41 | 1013.3 |
| 20260905200515 | 33 | 111 | 0.0 | 12.9 | 0.00 | 0.56 | 0.56 | 44 | 1013.4 |
| 20260905200004 | 33 | 255 | 1.6 | 12.9 | 0.00 | 0.56 | 0.56 | 42 | 1013.4 |
| 20260905195506 | 33 | 208 | 1.6 | 8.0 | 0.00 | 0.56 | 0.56 | 40 | 1013.4 |
| 20260905195008 | 33 | 190 | 3.2 | 6.4 | 0.00 | 0.56 | 0.56 | 40 | 1013.5 |
| 20260905194504 | 32 | 196 | 1.6 | 4.8 | 0.00 | 0.56 | 0.56 | 39 | 1013.6 |
| 20260905194004 | 32 | 238 | 0.0 | 4.8 | 0.00 | 0.56 | 0.56 | 42 | 1013.7 |
| 20260905193507 | 32 | 131 | 1.6 | 4.8 | 0.00 | 0.56 | 0.56 | 44 | 1013.8 |
| 20260905193010 | 32 | 140 | 0.0 | 4.8 | 0.00 | 0.56 | 0.56 | 46 | 1013.7 |
| 20260905192509 | 32 | 209 | 0.0 | 4.8 | 0.00 | 0.56 | 0.56 | 44 | 1013.7 |
| 20260905192013 | 32 | 68 | 0.0 | 4.8 | 0.00 | 0.56 | 0.56 | 47 | 1013.8 |
| 20260905191516 | 31 | 99 | 1.6 | 4.8 | 0.00 | 0.56 | 0.56 | 45 | 1013.8 |
| 20260905191008 | 31 | 94 | 1.6 | 4.8 | 0.00 | 0.56 | 0.56 | 46 | 1013.9 |
| 20260905190510 | 31 | 70 | 0.0 | 3.2 | 0.00 | 0.56 | 0.56 | 47 | 1013.9 |
| 20260905190025 | 31 | 39 | 0.0 | 3.2 | 0.00 | 0.56 | 0.56 | 44 | 1014.1 |
| 20260905185513 | 31 | 63 | 1.6 | 4.8 | 0.00 | 0.56 | 0.56 | 44 | 1014.1 |
| 20260905185014 | 31 | 111 | 0.0 | 4.8 | 0.00 | 0.56 | 0.56 | 44 | 1014.2 |
| 20260905184503 | 31 | 48 | 0.0 | 4.8 | 0.00 | 0.56 | 0.56 | 48 | 1014.3 |
| 20260905184003 | 31 | 115 | 1.6 | 8.0 | 0.00 | 0.56 | 0.56 | 47 | 1014.3 |
| 20260905183504 | 31 | 360 | 1.6 | 8.0 | 0.00 | 0.56 | 0.56 | 48 | 1014.4 |
| 20260905183006 | 31 | 109 | 1.6 | 6.4 | 0.00 | 0.56 | 0.56 | 48 | 1014.4 |
| 20260905182505 | 30 | 80 | 0.0 | 4.8 | 0.00 | 0.56 | 0.56 | 49 | 1014.5 |
| 20260905182005 | 30 | 98 | 0.0 | 4.8 | 0.00 | 0.56 | 0.56 | 50 | 1014.6 |
| 20260905181512 | 30 | 88 | 0.0 | 4.8 | 0.00 | 0.56 | 0.56 | 49 | 1014.7 |
| 20260905181010 | 30 | 9 | 0.0 | 4.8 | 0.00 | 0.56 | 0.56 | 50 | 1014.7 |
| 20260905180512 | 30 | 352 | 0.0 | 4.8 | 0.00 | 0.56 | 0.56 | 49 | 1014.8 |
| 20260905180017 | 30 | 59 | 0.0 | 4.8 | 0.00 | 0.56 | 0.56 | 49 | 1014.9 |
| 20260905175511 | 30 | 12 | 0.0 | 4.8 | 0.00 | 0.56 | 0.56 | 49 | 1015.0 |
| 20260905175014 | 30 | 58 | 0.0 | 4.8 | 0.00 | 0.56 | 0.56 | 49 | 1015.0 |
| 20260905174524 | 29 | 57 | 1.6 | 4.8 | 0.00 | 0.56 | 0.56 | 51 | 1015.2 |
| 20260905174016 | 29 | 96 | 0.0 | 3.2 | 0.00 | 0.56 | 0.56 | 53 | 1015.1 |
| 20260905173518 | 29 | 5 | 0.0 | 4.8 | 0.00 | 0.56 | 0.56 | 52 | 1015.1 |
| 20260905173007 | 28 | 63 | 0.0 | 4.8 | 0.00 | 0.56 | 0.56 | 53 | 1015.0 |
| 20260905172503 | 28 | 72 | 0.0 | 6.4 | 0.00 | 0.56 | 0.56 | 52 | 1015.2 |
| 20260905172003 | 28 | 117 | 0.0 | 6.4 | 0.00 | 0.56 | 0.56 | 53 | 1015.2 |
| 20260905171523 | 28 | 51 | 0.0 | 4.8 | 0.00 | 0.56 | 0.56 | 51 | 1015.3 |
| 20260905171013 | 28 | 51 | 0.0 | 8.0 | 0.00 | 0.56 | 0.56 | 52 | 1015.4 |
| 20260905170506 | 28 | 59 | 0.0 | 8.0 | 0.00 | 0.56 | 0.56 | 54 | 1015.5 |
| 20260905170014 | 28 | 44 | 0.0 | 4.8 | 0.00 | 0.56 | 0.56 | 57 | 1015.5 |
| 20260905165512 | 28 | 53 | 0.0 | 4.8 | 0.00 | 0.56 | 0.56 | 56 | 1015.5 |
| 20260905165010 | 28 | 5 | 0.0 | 4.8 | 0.00 | 0.56 | 0.56 | 57 | 1015.5 |
| 20260905164523 | 27 | 61 | 1.6 | 6.4 | 0.00 | 0.56 | 0.56 | 57 | 1015.3 |
| 20260905164012 | 27 | 63 | 0.0 | 6.4 | 0.00 | 0.56 | 0.56 | 57 | 1015.3 |
| 20260905163515 | 27 | 61 | 0.0 | 6.4 | 0.00 | 0.56 | 0.56 | 59 | 1015.4 |
| 20260905163030 | 27 | 67 | 1.6 | 8.0 | 0.00 | 0.56 | 0.56 | 60 | 1015.3 |
| 20260905162516 | 27 | 5 | 1.6 | 8.0 | 0.00 | 0.56 | 0.56 | 58 | 1015.3 |
| 20260905162018 | 27 | 360 | 1.6 | 4.8 | 0.00 | 0.56 | 0.56 | 60 | 1015.3 |
| 20260905161537 | 26 | 67 | 1.6 | 3.2 | 0.00 | 0.56 | 0.56 | 62 | 1015.4 |
| 20260905161020 | 26 | 20 | 0.0 | 4.8 | 0.00 | 0.56 | 0.56 | 63 | 1015.4 |
| 20260905160516 | 26 | 23 | 1.6 | 4.8 | 0.00 | 0.56 | 0.56 | 63 | 1015.5 |
| 20260905160044 | 26 | 60 | 0.0 | 4.8 | 0.00 | 0.56 | 0.56 | 64 | 1015.4 |
| 20260905155518 | 26 | 13 | 0.0 | 3.2 | 0.00 | 0.56 | 0.56 | 67 | 1015.5 |
| 20260905155015 | 26 | 62 | 0.0 | 3.2 | 0.00 | 0.56 | 0.56 | 68 | 1015.7 |
| 20260905154540 | 25 | 96 | 0.0 | 3.2 | 0.00 | 0.56 | 0.56 | 67 | 1015.8 |
| 20260905154015 | 25 | 56 | 1.6 | 6.4 | 0.00 | 0.56 | 0.56 | 69 | 1015.9 |
| 20260905153513 | 25 | 48 | 0.0 | 6.4 | 0.00 | 0.56 | 0.56 | 70 | 1016.0 |
| 20260905153027 | 25 | 39 | 0.0 | 4.8 | 0.00 | 0.56 | 0.56 | 71 | 1016.0 |
| 20260905152515 | 25 | 39 | 0.0 | 4.8 | 0.00 | 0.56 | 0.56 | 70 | 1016.1 |
| 20260905152015 | 25 | 15 | 0.0 | 8.0 | 0.00 | 0.56 | 0.56 | 72 | 1016.0 |
| 20260905151531 | 24 | 59 | 1.6 | 8.0 | 0.00 | 0.56 | 0.56 | 70 | 1016.0 |
| 20260905151019 | 24 | 40 | 1.6 | 6.4 | 0.00 | 0.56 | 0.56 | 74 | 1016.0 |
| 20260905150519 | 23 | 11 | 0.0 | 8.0 | 0.00 | 0.56 | 0.56 | 75 | 1016.0 |
| 20260905150031 | 23 | 40 | 1.6 | 8.0 | 0.00 | 0.56 | 0.56 | 74 | 1016.1 |
| 20260905145518 | 23 | 351 | 4.8 | 8.0 | 0.00 | 0.56 | 0.56 | 74 | 1016.1 |
| 20260905145019 | 23 | 5 | 3.2 | 6.4 | 0.00 | 0.56 | 0.56 | 78 | 1016.2 |
| 20260905144541 | 23 | 5 | 0.0 | 8.0 | 0.00 | 0.56 | 0.56 | 79 | 1016.3 |
| 20260905144017 | 22 | 42 | 3.2 | 8.0 | 0.00 | 0.56 | 0.56 | 80 | 1016.3 |
| 20260905143515 | 22 | 17 | 1.6 | 8.0 | 0.00 | 0.56 | 0.56 | 83 | 1016.4 |
| 20260905143022 | 22 | 32 | 1.6 | 4.8 | 0.00 | 0.56 | 0.56 | 85 | 1016.4 |
| 20260905142512 | 22 | 14 | 1.6 | 8.0 | 0.00 | 0.56 | 0.56 | 86 | 1016.5 |
| 20260905142015 | 22 | 13 | 3.2 | 9.7 | 0.00 | 0.56 | 0.56 | 86 | 1016.5 |
| 20260905141528 | 21 | 5 | 3.2 | 9.7 | 0.00 | 0.56 | 0.56 | 88 | 1016.4 |
| 20260905141016 | 21 | 9 | 1.6 | 6.4 | 0.00 | 0.56 | 0.56 | 90 | 1016.4 |
| 20260905140517 | 21 | 25 | 3.2 | 6.4 | 0.00 | 0.56 | 0.56 | 91 | 1016.3 |
| 20260905140035 | 21 | 360 | 0.0 | 6.4 | 0.00 | 0.56 | 0.56 | 91 | 1016.4 |
| 20260905135518 | 21 | 350 | 1.6 | 6.4 | 0.03 | 0.56 | 0.56 | 91 | 1016.4 |
| 20260905135016 | 21 | 352 | 0.0 | 1.6 | 0.03 | 0.56 | 0.56 | 91 | 1016.5 |
| 20260905134534 | 21 | 5 | 0.0 | 4.8 | 0.03 | 0.56 | 0.56 | 92 | 1016.7 |
| 20260905134016 | 21 | 5 | 0.0 | 4.8 | 0.08 | 0.56 | 0.56 | 92 | 1016.7 |
| 20260905133519 | 21 | 355 | 1.6 | 4.8 | 0.08 | 0.56 | 0.56 | 92 | 1016.6 |
| 20260905133030 | 21 | 310 | 0.0 | 4.8 | 0.08 | 0.56 | 0.56 | 92 | 1016.7 |
| 20260905132515 | 21 | 318 | 0.0 | 4.8 | 0.08 | 0.56 | 0.56 | 92 | 1016.8 |
| 20260905132005 | 21 | 238 | 0.0 | 11.3 | 0.08 | 0.56 | 0.56 | 92 | 1017.2 |
| 20260905131508 | 21 | 284 | 0.0 | 16.1 | 0.08 | 0.56 | 0.56 | 92 | 1017.2 |
| 20260905131005 | 21 | 314 | 1.6 | 16.1 | 0.08 | 0.56 | 0.56 | 92 | 1017.3 |
| 20260905130503 | 21 | 261 | 1.6 | 16.1 | 0.08 | 0.56 | 0.56 | 92 | 1017.1 |
| 20260905130011 | 21 | 232 | 1.6 | 16.1 | 0.08 | 0.56 | 0.56 | 92 | 1017.0 |
| 20260905125507 | 21 | 269 | 3.2 | 16.1 | 0.05 | 0.53 | 0.53 | 91 | 1017.0 |
| 20260905125006 | 21 | 279 | 3.2 | 16.1 | 0.10 | 0.53 | 0.53 | 91 | 1017.0 |
| 20260905124508 | 21 | 285 | 3.2 | 14.5 | 0.23 | 0.48 | 0.48 | 90 | 1017.0 |
| 20260905124005 | 21 | 280 | 0.0 | 11.3 | 0.36 | 0.48 | 0.48 | 90 | 1017.2 |
| 20260905123505 | 21 | 253 | 1.6 | 11.3 | 0.41 | 0.48 | 0.48 | 89 | 1016.9 |
| 20260905123009 | 21 | 271 | 0.0 | 11.3 | 0.46 | 0.48 | 0.48 | 90 | 1016.7 |
| 20260905122506 | 21 | 305 | 0.0 | 4.8 | 0.48 | 0.48 | 0.48 | 91 | 1016.7 |
| 20260905122006 | 21 | 263 | 0.0 | 4.8 | 0.48 | 0.48 | 0.48 | 90 | 1016.5 |
| 20260905121509 | 21 | 137 | 0.0 | 6.4 | 0.48 | 0.48 | 0.48 | 90 | 1016.6 |
| 20260905121006 | 21 | 117 | 1.6 | 6.4 | 0.48 | 0.48 | 0.48 | 89 | 1016.6 |
| 20260905120508 | 21 | 230 | 1.6 | 6.4 | 0.48 | 0.48 | 0.48 | 89 | 1016.5 |
| 20260905120009 | 21 | 267 | 0.0 | 4.8 | 0.48 | 0.48 | 0.48 | 89 | 1016.3 |
| 20260905115505 | 21 | 332 | 0.0 | 4.8 | 0.48 | 0.48 | 0.48 | 89 | 1015.8 |
| 20260905115008 | 21 | 18 | 1.6 | 19.3 | 0.43 | 0.43 | 0.43 | 87 | 1016.1 |
| 20260905114509 | 21 | 301 | 1.6 | 19.3 | 0.25 | 0.25 | 0.25 | 85 | 1016.6 |
| 20260905114005 | 22 | 163 | 4.8 | 16.1 | 0.13 | 0.13 | 0.13 | 81 | 1016.9 |
| 20260905113508 | 22 | 233 | 6.4 | 19.3 | 0.08 | 0.08 | 0.08 | 77 | 1016.6 |
| 20260905113010 | 23 | 273 | 8.0 | 19.3 | 0.03 | 0.03 | 0.03 | 73 | 1016.9 |
| 20260905112506 | 23 | 239 | 4.8 | 38.6 | 0.00 | 0.00 | 0.00 | 71 | 1016.5 |
| 20260905112008 | 24 | 172 | 8.0 | 38.6 | 0.00 | 0.00 | 0.00 | 71 | 1016.1 |
| 20260905111508 | 24 | 219 | 6.4 | 24.1 | 0.00 | 0.00 | 0.00 | 73 | 1016.3 |
| 20260905111006 | 24 | 221 | 4.8 | 27.4 | 0.00 | 0.00 | 0.00 | 73 | 1016.0 |
| 20260905110509 | 25 | 175 | 9.7 | 27.4 | 0.00 | 0.00 | 0.00 | 73 | 1016.0 |
| 20260905110012 | 25 | 180 | 12.9 | 27.4 | 0.00 | 0.00 | 0.00 | 74 | 1015.9 |
| 20260905105508 | 25 | 278 | 4.8 | 19.3 | 0.00 | 0.00 | 0.00 | 77 | 1015.8 |
| 20260905105008 | 24 | 186 | 4.8 | 12.9 | 0.00 | 0.00 | 0.00 | 80 | 1015.3 |
| 20260905104517 | 24 | 205 | 3.2 | 6.4 | 0.00 | 0.00 | 0.00 | 83 | 1014.7 |
| 20260905104007 | 24 | 281 | 0.0 | 0.0 | 0.00 | 0.00 | 0.00 | 84 | 1014.5 |
| 20260905103509 | 24 | 281 | 0.0 | 0.0 | 0.00 | 0.00 | 0.00 | 84 | 1014.4 |
| 20260905103009 | 24 | 281 | 0.0 | 0.0 | 0.00 | 0.00 | 0.00 | 84 | 1014.4 |
| 20260905102506 | 24 | 281 | 0.0 | 0.0 | 0.00 | 0.00 | 0.00 | 83 | 1014.3 |
| 20260905102010 | 24 | 281 | 0.0 | 0.0 | 0.00 | 0.00 | 0.00 | 83 | 1014.3 |
| 20260905101512 | 24 | 281 | 0.0 | 0.0 | 0.00 | 0.00 | 0.00 | 83 | 1014.4 |
| 20260905101007 | 24 | 281 | 0.0 | 0.0 | 0.00 | 0.00 | 0.00 | 83 | 1014.6 |
| 20260905100507 | 24 | 281 | 0.0 | 0.0 | 0.00 | 0.00 | 0.00 | 83 | 1014.6 |
| 20260905100013 | 24 | 281 | 0.0 | 0.0 | 0.00 | 0.00 | 0.00 | 82 | 1014.6 |
| 20260905095508 | 24 | 281 | 0.0 | 0.0 | 0.00 | 0.00 | 0.00 | 82 | 1014.7 |
| 20260905095007 | 24 | 281 | 0.0 | 0.0 | 0.00 | 0.00 | 0.00 | 82 | 1014.7 |
| 20260905094512 | 24 | 281 | 0.0 | 0.0 | 0.00 | 0.00 | 0.00 | 82 | 1014.5 |
| 20260905094007 | 24 | 281 | 0.0 | 0.0 | 0.00 | 0.00 | 0.00 | 82 | 1014.5 |
| 20260905093511 | 24 | 281 | 0.0 | 0.0 | 0.00 | 0.00 | 0.00 | 81 | 1014.5 |
| 20260905093014 | 24 | 281 | 0.0 | 0.0 | 0.00 | 0.00 | 0.00 | 81 | 1014.4 |
| 20260905092511 | 24 | 281 | 0.0 | 0.0 | 0.00 | 0.00 | 0.00 | 81 | 1014.4 |
| 20260905092011 | 24 | 281 | 0.0 | 0.0 | 0.00 | 0.00 | 0.00 | 80 | 1014.3 |
| 20260905091515 | 24 | 281 | 0.0 | 0.0 | 0.00 | 0.00 | 0.00 | 80 | 1014.4 |
| 20260905091010 | 24 | 281 | 0.0 | 0.0 | 0.00 | 0.00 | 0.00 | 80 | 1014.4 |
| 20260905090510 | 24 | 281 | 0.0 | 0.0 | 0.00 | 0.00 | 0.00 | 80 | 1014.3 |
| 20260905090019 | 24 | 281 | 0.0 | 0.0 | 0.00 | 0.00 | 0.00 | 80 | 1014.4 |
| 20260905085508 | 24 | 281 | 0.0 | 0.0 | 0.00 | 0.00 | 0.00 | 80 | 1014.4 |
| 20260905085009 | 24 | 281 | 0.0 | 0.0 | 0.00 | 0.00 | 0.00 | 80 | 1014.3 |
| 20260905084522 | 25 | 281 | 0.0 | 0.0 | 0.00 | 0.00 | 0.00 | 79 | 1014.3 |
| 20260905084009 | 25 | 281 | 0.0 | 0.0 | 0.00 | 0.00 | 0.00 | 79 | 1014.3 |
| 20260905083508 | 25 | 281 | 0.0 | 0.0 | 0.00 | 0.00 | 0.00 | 79 | 1014.2 |
| 20260905083016 | 25 | 281 | 0.0 | 0.0 | 0.00 | 0.00 | 0.00 | 79 | 1014.2 |
| 20260905082510 | 25 | 281 | 0.0 | 0.0 | 0.00 | 0.00 | 0.00 | 79 | 1014.2 |
| 20260905082012 | 25 | 281 | 0.0 | 0.0 | 0.00 | 0.00 | 0.00 | 79 | 1014.1 |
| 20260905081518 | 25 | 281 | 0.0 | 0.0 | 0.00 | 0.00 | 0.00 | 79 | 1014.2 |
| 20260905081013 | 25 | 281 | 0.0 | 0.0 | 0.00 | 0.00 | 0.00 | 79 | 1014.1 |
| 20260905080511 | 25 | 281 | 0.0 | 0.0 | 0.00 | 0.00 | 0.00 | 79 | 1014.2 |
| 20260905080033 | 25 | 281 | 0.0 | 0.0 | 0.00 | 0.00 | 0.00 | 79 | 1014.2 |
| 20260905075511 | 25 | 281 | 0.0 | 0.0 | 0.00 | 0.00 | 0.00 | 78 | 1014.3 |
| 20260905075009 | 25 | 281 | 0.0 | 0.0 | 0.00 | 0.00 | 0.00 | 78 | 1014.3 |
| 20260905074519 | 25 | 281 | 0.0 | 0.0 | 0.00 | 0.00 | 0.00 | 79 | 1014.2 |
| 20260905074012 | 25 | 281 | 0.0 | 0.0 | 0.00 | 0.00 | 0.00 | 78 | 1014.2 |
| 20260905073511 | 25 | 281 | 0.0 | 0.0 | 0.00 | 0.00 | 0.00 | 78 | 1014.3 |
| 20260905073034 | 25 | 281 | 0.0 | 0.0 | 0.00 | 0.00 | 0.00 | 78 | 1014.4 |
| 20260905072513 | 25 | 281 | 0.0 | 0.0 | 0.00 | 0.00 | 0.00 | 78 | 1014.5 |
| 20260905072003 | 25 | 281 | 0.0 | 0.0 | 0.00 | 0.00 | 0.00 | 78 | 1014.5 |
| 20260905071508 | 25 | 281 | 0.0 | 0.0 | 0.00 | 0.00 | 0.00 | 78 | 1014.7 |
| 20260905071003 | 25 | 281 | 0.0 | 0.0 | 0.00 | 0.00 | 0.00 | 78 | 1014.6 |
| 20260905070511 | 25 | 281 | 0.0 | 0.0 | 0.00 | 0.00 | 0.00 | 77 | 1014.7 |
| 20260905070011 | 25 | 281 | 0.0 | 0.0 | 0.00 | 0.00 | 0.00 | 76 | 1014.9 |
| 20260905065509 | 25 | 281 | 0.0 | 0.0 | 0.00 | 0.00 | 0.00 | 77 | 1014.7 |
| 20260905065011 | 25 | 281 | 0.0 | 0.0 | 0.00 | 0.00 | 0.00 | 76 | 1014.8 |
| 20260905064517 | 25 | 281 | 0.0 | 0.0 | 0.00 | 0.00 | 0.00 | 76 | 1015.0 |
| 20260905064013 | 25 | 281 | 0.0 | 0.0 | 0.00 | 0.00 | 0.00 | 76 | 1015.0 |
| 20260905063510 | 25 | 281 | 0.0 | 0.0 | 0.00 | 0.00 | 0.00 | 76 | 1015.1 |
| 20260905063023 | 25 | 281 | 0.0 | 0.0 | 0.00 | 0.00 | 0.00 | 76 | 1015.2 |
| 20260905062503 | 25 | 281 | 0.0 | 0.0 | 0.00 | 0.00 | 0.00 | 76 | 1015.2 |
| 20260905062007 | 25 | 281 | 0.0 | 0.0 | 0.00 | 0.00 | 0.00 | 76 | 1015.3 |
| 20260905061505 | 25 | 281 | 0.0 | 0.0 | 0.00 | 0.00 | 0.00 | 76 | 1015.3 |
| 20260905061007 | 25 | 281 | 0.0 | 0.0 | 0.00 | 0.00 | 0.00 | 76 | 1015.4 |
| 20260905060504 | 25 | 281 | 0.0 | 0.0 | 0.00 | 0.00 | 0.00 | 76 | 1015.4 |
| 20260905060010 | 25 | 281 | 0.0 | 0.0 | 0.00 | 0.00 | 0.00 | 76 | 1015.5 |
| 20260905055507 | 25 | 281 | 0.0 | 0.0 | 0.00 | 0.00 | 0.00 | 76 | 1015.6 |
| 20260905055007 | 25 | 281 | 0.0 | 0.0 | 0.00 | 0.00 | 0.00 | 76 | 1015.6 |
| 20260905054518 | 25 | 281 | 0.0 | 0.0 | 0.00 | 0.00 | 0.00 | 76 | 1015.7 |
| 20260905054009 | 26 | 281 | 0.0 | 0.0 | 0.00 | 0.00 | 0.00 | 76 | 1015.7 |
| 20260905053511 | 26 | 281 | 0.0 | 0.0 | 0.00 | 0.00 | 0.00 | 75 | 1015.7 |
| 20260905053022 | 26 | 281 | 0.0 | 0.0 | 0.00 | 0.00 | 0.00 | 75 | 1015.8 |
| 20260905052514 | 26 | 281 | 0.0 | 0.0 | 0.00 | 0.00 | 0.00 | 75 | 1015.8 |
| 20260905052013 | 26 | 281 | 0.0 | 0.0 | 0.00 | 0.00 | 0.00 | 74 | 1015.8 |
| 20260905051532 | 26 | 281 | 0.0 | 0.0 | 0.00 | 0.00 | 0.00 | 74 | 1015.8 |
| 20260905051002 | 26 | 281 | 0.0 | 0.0 | 0.00 | 0.00 | 0.00 | 73 | 1015.8 |
| 20260905050506 | 26 | 281 | 0.0 | 0.0 | 0.00 | 0.00 | 0.00 | 73 | 1015.9 |
| 20260905050011 | 26 | 281 | 0.0 | 0.0 | 0.00 | 0.00 | 0.00 | 72 | 1015.9 |
| 20260905045509 | 26 | 281 | 0.0 | 0.0 | 0.00 | 0.00 | 0.00 | 72 | 1015.9 |
| 20260905045011 | 26 | 281 | 0.0 | 0.0 | 0.00 | 0.00 | 0.00 | 72 | 1015.9 |
| 20260905044516 | 26 | 281 | 0.0 | 0.0 | 0.00 | 0.00 | 0.00 | 71 | 1015.9 |
| 20260905044007 | 26 | 281 | 0.0 | 0.0 | 0.00 | 0.00 | 0.00 | 71 | 1015.8 |
| 20260905043511 | 26 | 281 | 0.0 | 0.0 | 0.00 | 0.00 | 0.00 | 71 | 1015.8 |
| 20260905043023 | 26 | 281 | 0.0 | 0.0 | 0.00 | 0.00 | 0.00 | 71 | 1015.8 |
| 20260905042513 | 26 | 281 | 0.0 | 0.0 | 0.00 | 0.00 | 0.00 | 70 | 1015.8 |
| 20260905042014 | 26 | 281 | 0.0 | 0.0 | 0.00 | 0.00 | 0.00 | 70 | 1015.8 |
| 20260905041526 | 26 | 281 | 0.0 | 0.0 | 0.00 | 0.00 | 0.00 | 70 | 1015.7 |
| 20260905041013 | 26 | 281 | 0.0 | 0.0 | 0.00 | 0.00 | 0.00 | 69 | 1015.8 |
| 20260905040513 | 26 | 281 | 0.0 | 0.0 | 0.00 | 0.00 | 0.00 | 69 | 1015.8 |